Find Starlink 31166

NORAD ID: 58789 Int'l Des: 2024-012 Owner: SPXS Country: US Constellation: starlink operational
LEOCIRCULAR

現在のビュー

3D地球を読み込み中...

About Starlink 31166

Starlink 31166 (NORAD 58789) is a starlink constellation satellite (v2 mini) launched Jan 15, 2024 by SPXS of US. It operates in LEO, CIRCULAR orbit with a mass of 730.00 kg.

次回通過

Passes for default location (London). Set your location on the main map for personalized predictions.

高度履歴

Loading altitude history...

軌道要素

1 58789U 24012C 26263.38414445 -.00001685 00000-0 -51712-4 0 9990
2 58789 43.0043 145.5712 0001208 286.8565 73.2154 15.27589142151013
Epoch: Sep 20, 2026 • Age: 19 hours

現在のステータス

高度 486.0 km
遠地点 / 近地点 N/A
速度 7.63 km/s
衛星直下点 38.43°N, 165.08°W
打ち上げ日 Jan 15, 2024
運用期間 2.6 years
タイプ internet

技術仕様

分類 Payload
質量 730.00 kg
乾燥質量 700.00 kg
長さ 0.30 m
スパン 29.00 m
形状 ? Box + pan
製造者 SPXS
バスタイプ Starlink V2M
フェーズステータス In Orbit
所有者/国 SPXS/US

Most Searched